Wind_Speed
8 9 11 11 12 12 12 13 15 17 19 21 24 25 25 26 28 30 28 27 25 22 21 19 16 17 17 16 11 10 12 15 13 10 9 9 10 9 9 7 7 9 7 7 8 11 10
8 9 8 9 10 12 13 14 15 17 20 23 26 28 29 30 31 32 31 30 26 23 20 19 16 15 15 16 10 8 11 15 11 11 10 9 8 9 8 8 8 9 6 8 9 14 16
7 7 7 8 9 12 14 16 18 20 22 24 27 29 32 35 34 33 29 27 24 20 17 16 15 13 13 11 9 8 11 15 11 11 10 10 7 8 9 9 10 9 10 16 18 19 18
7 6 6 8 11 13 16 17 19 21 24 26 28 30 33 37 36 31 27 25 22 17 13 13 13 12 12 9 7 9 11 10 11 10 11 10 8 7 7 10 5 12 10 10 15 21 22
7 7 8 10 12 15 18 21 22 24 26 28 30 31 34 36 34 29 27 23 19 13 11 11 11 11 8 5 7 10 12 11 9 10 9 8 9 7 8 11 3 5 10 10 12 20 21
10 10 11 13 15 17 19 21 24 26 27 30 31 32 34 35 31 27 25 22 18 12 9 9 8 5 5 13 10 8 13 11 11 11 9 7 7 6 10 8 3 8 13 12 13 16 24
13 13 14 16 17 19 20 22 24 25 27 30 32 32 34 34 29 25 21 19 14 9 11 8 11 13 12 10 7 7 10 11 11 12 12 11 6 2 9 7 8 10 12 16 15 23 26
14 15 17 19 19 20 21 22 24 26 27 29 31 33 34 31 27 24 23 21 19 16 13 11 10 10 8 5 4 8 7 10 13 14 13 10 5 7 11 7 7 12 15 17 17 14 27
16 17 19 20 21 21 22 23 24 25 27 28 30 32 34 29 25 23 20 19 17 17 14 7 7 6 3 0 4 5 10 11 12 13 15 11 10 11 11 9 9 12 10 16 20 28 11
20 20 21 22 23 23 24 24 25 26 26 28 28 30 32 27 22 20 18 18 16 15 5 6 6 4 3 3 4 8 9 13 13 13 14 6 6 14 10 9 10 13 14 19 23 17 5
22 23 23 24 25 24 25 24 25 25 26 27 28 29 31 24 21 18 18 16 14 11 3 7 5 5 5 5 9 8 13 15 14 15 11 9 13 14 11 11 11 13 18 19 14 10 13
24 25 25 25 26 25 25 24 24 25 26 26 26 28 28 23 18 17 16 14 13 4 3 7 6 7 7 7 10 14 16 16 16 10 13 10 12 15 10 12 13 17 15 9 7 7 2
25 26 26 25 25 24 24 24 23 24 25 26 26 28 26 21 18 16 15 13 4 4 6 5 6 8 10 13 15 17 14 13 12 10 8 16 13 8 10 13 13 18 12 5 4 1 3
24 26 26 25 24 25 24 23 23 23 24 25 27 27 22 18 15 15 13 9 1 2 7 12 13 13 11 13 10 9 12 8 11 11 11 7 6 8 6 16 11 9 6 2 3 3 6
22 24 24 24 23 23 23 23 23 23 23 23 27 25 19 16 14 12 10 3 3 5 5 10 12 7 5 10 7 10 7 11 12 7 3 7 5 12 18 15 8 6 1 7 6 9 6
22 23 22 23 23 24 24 23 22 22 22 23 24 22 16 13 12 11 9 6 8 9 12 13 6 6 5 7 9 5 6 8 12 8 6 6 10 11 13 10 12 5 7 2 4 3 5
23 25 23 24 25 24 24 23 21 21 21 23 23 23 16 15 14 11 9 10 12 13 12 8 8 10 7 11 8 8 6 11 15 15 9 9 7 11 17 9 7 8 4 2 5 6 2
27 24 24 25 25 25 23 23 22 21 21 22 23 22 19 16 14 10 11 12 12 13 13 13 12 13 12 11 12 7 8 9 12 15 11 10 10 15 21 17 19 18 16 9 3 3 8
30 26 24 25 26 25 23 23 22 21 20 22 22 22 15 14 10 13 15 14 14 16 15 13 10 12 12 11 7 5 12 17 17 13 7 7 4 8 5 7 3 7 6 13 13 14 16
30 32 27 26 28 26 23 22 21 21 21 22 23 18 19 15 10 9 13 16 13 14 13 14 14 16 16 15 12 11 11 14 22 14 12 14 17 17 19 17 23 32 23 22 22 24 20
29 31 30 26 29 28 27 24 21 20 21 21 21 21 16 16 19 14 15 15 16 15 17 14 10 14 12 10 9 14 17 20 23 17 16 14 20 21 26 29 28 32 35 31 32 40 27
31 33 32 29 32 30 27 23 22 21 22 20 20 19 17 18 18 16 16 15 16 15 16 10 13 17 16 16 15 24 23 24 24 21 15 13 19 15 25 29 31 32 37 38 40 40 40
38 36 33 31 32 31 29 26 23 21 21 20 20 17 17 19 18 17 16 18 17 18 17 17 16 18 19 21 27 27 29 31 33 31 32 30 26 23 27 16 19 28 7 4 8 14 18
43 42 37 31 33 32 29 25 24 22 21 20 19 20 20 21 19 17 18 18 19 20 20 21 22 24 24 26 29 30 30 27 24 26 30 38 23 16 20 23 6 11 13 25 21 14 13
47 45 43 33 33 30 28 26 23 24 21 19 19 19 18 19 20 21 22 20 19 20 19 21 19 23 21 22 26 19 19 11 10 7 11 17 23 21 10 12 24 28 9 5 6 2 6
45 49 47 36 33 31 28 26 23 22 21 19 18 19 19 19 21 20 20 18 19 21 17 20 21 17 19 18 16 7 6 8 4 6 6 10 21 31 14 7 4 3 12 13 15 3 9
55 54 48 37 35 31 24 25 23 20 20 18 20 22 23 20 20 18 18 19 22 21 19 16 21 20 19 13 10 9 12 14 8 4 7 7 9 28 29 22 14 15 21 22 7 3 10
60 57 46 35 35 28 24 24 22 20 18 23 24 24 23 20 17 20 14 16 19 22 21 16 18 10 10 8 4 7 11 12 11 12 13 9 7 8 13 15 15 12 13 8 2 3 3
61 59 41 35 30 25 25 23 22 21 25 26 24 22 22 20 18 19 19 21 17 15 21 21 19 13 9 9 9 9 13 15 12 12 13 11 12 14 9 10 10 10 8 7 12 13 17
Wind_Direction
351 348 350 357 2 4 3 2 359 356 353 348 344 340 339 337 333 328 324 320 318 317 321 314 316 319 322 330 336 329 341 343 344 356 0 357 358 358 8 6 7 20 11 358 14 9 346
337 341 356 4 4 1 357 356 353 352 349 346 344 341 340 337 334 329 323 316 314 310 308 313 312 312 315 325 326 329 341 344 342 352 3 1 359 353 349 355 1 349 321 346 344 352 346
327 335 346 352 352 349 347 346 344 345 344 344 342 342 343 341 335 332 330 323 319 314 301 303 311 307 313 317 320 327 340 344 343 352 2 357 359 355 347 351 343 348 17 357 339 341 341
316 321 329 331 331 334 335 335 337 337 336 337 338 338 340 341 339 338 334 329 326 323 305 303 313 308 314 316 317 325 336 347 343 350 358 358 356 354 358 347 23 13 12 360 320 320 332
300 304 304 307 314 319 324 326 328 331 334 334 335 337 339 342 340 340 338 337 334 331 313 308 311 305 317 327 321 322 330 335 344 345 352 8 352 354 357 15 6 329 314 320 315 326 316
295 294 295 300 306 310 314 318 323 327 331 333 334 335 338 341 341 343 340 340 341 341 326 324 320 323 309 316 309 317 326 330 337 343 339 3 359 359 2 349 350 307 322 317 324 308 300
292 292 293 297 302 305 309 315 320 324 327 331 334 335 337 340 341 342 344 335 344 358 337 329 311 302 304 304 301 313 328 333 338 336 348 351 348 18 330 332 325 319 323 325 327 299 314
289 293 296 300 303 307 310 313 317 320 325 330 334 335 337 341 341 341 345 343 347 345 342 331 319 308 301 294 290 321 337 340 340 339 338 339 343 324 322 318 323 342 331 318 317 313 311
288 292 295 298 303 306 308 310 313 318 323 328 334 335 337 340 340 339 344 344 342 341 337 357 358 350 13 279 323 325 339 340 340 335 338 321 279 301 310 320 330 337 296 304 310 323 335
285 287 291 295 298 302 305 308 312 316 321 326 331 334 335 335 337 337 342 344 341 341 345 19 9 5 345 316 332 332 342 337 334 326 329 317 311 314 303 321 319 337 313 318 316 325 311
279 283 287 290 294 298 302 306 309 314 319 324 330 334 334 334 334 337 341 344 341 344 56 350 356 339 307 284 312 324 328 326 321 318 315 300 303 317 301 311 316 319 321 320 320 325 317
281 283 286 289 293 298 301 304 308 313 316 322 327 331 333 328 333 335 340 342 340 353 22 337 329 326 319 301 302 309 316 315 313 314 311 302 305 307 291 314 316 327 325 332 310 314 284
282 285 287 290 294 297 299 303 307 311 315 320 325 330 330 325 329 332 336 341 353 57 334 298 334 331 321 309 311 316 322 330 326 321 323 311 305 310 291 318 325 336 349 336 331 259 243
287 289 291 292 295 298 300 302 305 309 314 320 323 327 327 323 325 326 327 331 4 302 277 296 314 319 309 307 303 323 326 343 312 314 314 324 309 317 309 313 311 343 19 29 264 298 293
292 295 295 295 297 298 299 301 304 309 315 321 323 326 326 322 321 320 321 310 250 273 292 310 323 339 303 331 319 322 331 294 275 290 290 310 287 302 301 303 312 318 336 305 274 288 266
295 296 295 296 299 299 300 300 304 309 315 320 325 327 327 326 322 316 308 277 258 274 287 299 312 283 266 284 307 304 297 271 288 292 284 287 295 286 306 299 303 263 289 303 263 310 304
291 293 297 299 299 297 298 299 302 307 312 319 323 325 328 326 318 310 291 278 282 286 287 287 262 272 279 307 301 306 269 282 282 285 298 297 274 287 301 296 282 284 278 258 260 252 255
283 295 298 300 300 299 296 296 299 303 308 315 319 323 322 316 308 301 286 296 288 287 287 285 285 279 286 284 291 280 260 263 279 299 301 270 275 277 293 274 279 283 254 254 261 277 263
282 284 293 301 298 293 293 293 295 299 306 312 317 320 317 315 296 303 297 294 287 288 287 280 277 284 272 282 295 256 265 272 279 284 264 266 276 312 291 262 256 343 286 252 261 266 261
277 279 283 301 302 295 291 289 292 300 307 310 316 314 310 302 291 291 297 297 296 297 294 288 281 277 281 275 257 264 268 292 295 284 273 278 271 256 256 264 292 294 277 270 268 273 259
272 277 279 290 295 291 290 292 293 297 300 304 312 310 303 293 299 304 297 291 290 292 293 291 295 282 278 278 263 257 261 258 265 285 287 282 268 271 270 274 273 277 287 289 270 264 255
274 276 280 285 291 286 283 280 278 286 291 296 301 304 299 291 295 293 291 290 287 278 290 280 271 275 274 273 265 267 261 265 281 278 276 273 276 273 267 275 285 289 282 285 283 275 262
268 275 277 277 285 282 280 281 284 286 291 299 304 300 294 294 295 294 278 279 285 289 288 283 286 289 283 286 278 284 281 279 277 277 274 268 266 286 287 294 300 292 297 317 304 278 286
265 265 273 273 281 275 273 275 279 280 285 292 294 298 299 294 296 287 276 279 279 281 280 285 291 288 292 294 297 294 292 290 278 278 265 261 254 262 279 301 245 261 271 294 291 283 274
258 262 266 269 277 269 266 270 276 278 283 282 287 293 293 291 294 288 287 286 281 280 283 288 290 291 293 298 305 315 323 307 320 301 263 250 248 248 248 245 282 306 297 357 15 241 283
258 258 262 264 276 274 263 270 270 274 277 280 288 290 291 292 288 291 287 284 283 282 280 292 290 289 293 290 298 290 294 288 293 313 283 267 245 228 237 252 272 58 326 304 314 256 320
254 254 255 264 270 271 261 265 265 269 272 277 288 289 290 290 289 287 283 283 287 284 287 286 290 300 295 290 272 266 265 276 268 244 286 280 240 224 236 243 270 270 282 291 282 293 348
251 252 251 261 266 266 256 258 263 263 269 285 291 293 293 292 291 284 281 286 286 282 281 275 290 300 289 268 266 266 266 259 265 241 254 272 285 240 237 235 257 288 291 277 248 271 312
245 246 248 259 261 250 244 249 245 254 273 283 287 286 291 294 296 292 292 283 277 273 271 274 262 252 239 245 233 258 267 276 274 285 236 289 248 281 244 231 258 299 280 258 304 291 294
Height
3171 3171 3170 3169 3167 3166 3164 3163 3160 3158 3156 3153 3150 3147 3143 3139 3135 3132 3128 3124 3122 3120 3118 3116 3115 3114 3112 3111 3110 3108 3107 3106 3105 3102 3100 3099 3099 3098 3097 3096 3095 3094 3093 3091 3090 3088 3086
3171 3170 3169 3168 3167 3167 3165 3163 3160 3158 3155 3152 3149 3145 3142 3137 3133 3129 3125 3120 3117 3116 3115 3114 3112 3111 3110 3110 3108 3107 3107 3105 3104 3102 3099 3098 3098 3098 3096 3095 3094 3093 3092 3091 3089 3087 3084
3171 3171 3170 3169 3167 3166 3165 3163 3160 3158 3155 3152 3148 3143 3140 3135 3130 3125 3120 3116 3113 3111 3111 3110 3109 3107 3108 3108 3106 3106 3105 3104 3103 3101 3099 3098 3097 3096 3096 3094 3093 3092 3091 3087 3086 3085 3083
3171 3171 3170 3169 3168 3167 3164 3162 3159 3156 3153 3150 3146 3142 3137 3132 3127 3122 3117 3113 3110 3108 3107 3107 3107 3106 3106 3105 3106 3106 3104 3102 3102 3100 3098 3097 3096 3095 3094 3094 3092 3090 3089 3090 3087 3083 3081
3170 3170 3169 3168 3167 3165 3164 3161 3158 3155 3152 3148 3144 3139 3134 3129 3124 3119 3114 3111 3108 3106 3105 3105 3105 3104 3105 3105 3105 3105 3104 3102 3100 3099 3097 3095 3096 3095 3094 3092 3092 3091 3089 3088 3085 3082 3079
3169 3168 3168 3167 3166 3164 3161 3159 3156 3153 3150 3146 3141 3137 3132 3126 3122 3118 3113 3109 3107 3105 3104 3104 3104 3106 3104 3105 3104 3103 3104 3102 3100 3098 3098 3095 3094 3094 3093 3093 3093 3091 3087 3086 3084 3083 3077
3167 3167 3165 3164 3163 3162 3159 3157 3154 3151 3147 3143 3139 3135 3129 3124 3119 3115 3113 3110 3110 3107 3103 3103 3104 3102 3102 3103 3103 3103 3102 3102 3100 3098 3096 3094 3094 3093 3092 3092 3091 3089 3087 3084 3083 3079 3073
3164 3163 3163 3162 3160 3159 3156 3154 3151 3148 3145 3141 3137 3133 3127 3122 3118 3114 3110 3107 3105 3105 3102 3101 3101 3101 3100 3100 3101 3102 3101 3102 3100 3098 3096 3096 3093 3093 3091 3090 3089 3086 3085 3083 3078 3075 3072
3160 3159 3159 3158 3157 3155 3153 3151 3148 3145 3142 3138 3134 3130 3126 3120 3116 3114 3110 3107 3104 3102 3101 3101 3100 3100 3101 3101 3102 3101 3101 3100 3099 3097 3096 3095 3094 3092 3091 3089 3087 3085 3083 3081 3078 3070 3067
3157 3156 3155 3154 3153 3152 3150 3148 3145 3142 3139 3135 3132 3127 3123 3118 3117 3112 3110 3107 3104 3102 3101 3104 3102 3102 3103 3102 3102 3101 3100 3100 3097 3096 3094 3092 3092 3091 3089 3087 3085 3083 3080 3077 3073 3070 3068
3152 3152 3151 3150 3148 3147 3146 3144 3142 3139 3136 3132 3129 3125 3121 3116 3114 3111 3109 3106 3104 3102 3103 3106 3103 3102 3101 3103 3102 3101 3100 3098 3096 3094 3093 3092 3089 3086 3086 3086 3084 3082 3078 3074 3070 3068 3066
3149 3147 3146 3145 3144 3143 3142 3140 3138 3135 3132 3129 3126 3122 3119 3115 3112 3110 3107 3105 3104 3105 3104 3105 3104 3103 3102 3100 3100 3099 3098 3097 3094 3092 3090 3088 3088 3087 3085 3084 3082 3079 3075 3071 3068 3067 3066
3144 3144 3142 3141 3140 3139 3138 3136 3134 3131 3129 3126 3123 3119 3116 3113 3110 3108 3107 3105 3105 3103 3106 3105 3103 3102 3101 3099 3098 3097 3096 3095 3094 3092 3089 3087 3085 3084 3084 3083 3081 3079 3075 3071 3072 3068 3064
3140 3139 3138 3137 3135 3135 3134 3132 3130 3127 3126 3123 3120 3116 3113 3111 3108 3106 3105 3106 3103 3104 3103 3103 3102 3101 3100 3098 3096 3095 3095 3093 3093 3093 3090 3087 3083 3083 3082 3082 3080 3077 3078 3077 3079 3073 3066
3136 3135 3134 3132 3131 3130 3129 3128 3126 3124 3122 3119 3117 3113 3110 3108 3105 3104 3104 3103 3102 3101 3101 3101 3101 3099 3099 3097 3097 3094 3093 3092 3090 3089 3092 3087 3084 3082 3080 3078 3080 3077 3077 3078 3074 3069 3066
3131 3131 3129 3128 3126 3126 3125 3124 3123 3120 3118 3116 3114 3111 3108 3105 3103 3102 3102 3102 3100 3099 3099 3098 3099 3098 3098 3096 3096 3095 3093 3090 3088 3088 3087 3086 3082 3078 3078 3076 3075 3075 3075 3074 3075 3073 3066
3127 3126 3124 3123 3122 3121 3121 3120 3119 3117 3115 3113 3111 3107 3105 3103 3101 3100 3100 3099 3098 3097 3097 3098 3096 3096 3096 3095 3094 3093 3092 3089 3086 3084 3086 3085 3083 3078 3075 3073 3072 3072 3072 3071 3072 3071 3067
3122 3121 3120 3119 3117 3117 3117 3116 3115 3114 3112 3110 3108 3105 3103 3100 3100 3097 3097 3096 3096 3094 3094 3093 3093 3092 3092 3091 3090 3092 3091 3087 3085 3085 3083 3082 3080 3076 3074 3072 3071 3069 3069 3071 3070 3069 3066
3116 3115 3115 3114 3113 3112 3112 3112 3111 3110 3109 3107 3105 3103 3100 3098 3096 3093 3092 3093 3092 3090 3089 3089 3089 3089 3089 3090 3090 3088 3086 3083 3081 3081 3081 3079 3079 3076 3070 3071 3069 3068 3068 3068 3068 3066 3061
3109 3109 3110 3109 3107 3107 3107 3107 3107 3106 3106 3105 3103 3100 3098 3095 3092 3093 3092 3090 3089 3087 3085 3085 3086 3085 3084 3084 3085 3083 3082 3080 3078 3079 3078 3079 3075 3074 3070 3064 3066 3064 3063 3064 3065 3060 3055
3103 3104 3104 3104 3104 3103 3102 3102 3101 3101 3102 3102 3100 3097 3095 3093 3089 3088 3090 3089 3087 3084 3083 3082 3081 3079 3079 3080 3080 3079 3077 3075 3073 3073 3071 3071 3069 3068 3064 3063 3059 3055 3052 3051 3050 3045 3050
3096 3097 3098 3098 3098 3098 3097 3097 3098 3098 3098 3098 3097 3096 3093 3090 3088 3086 3084 3084 3083 3081 3080 3079 3078 3077 3077 3075 3076 3071 3070 3069 3068 3070 3069 3068 3062 3063 3055 3055 3053 3045 3042 3039 3035 3034 3034
3089 3090 3091 3092 3092 3092 3092 3092 3093 3093 3092 3092 3092 3091 3089 3088 3085 3083 3081 3078 3078 3077 3077 3075 3073 3072 3072 3073 3069 3067 3064 3061 3061 3061 3063 3062 3060 3060 3050 3052 3046 3038 3033 3032 3030 3031 3028
3080 3082 3083 3085 3086 3085 3085 3086 3086 3087 3087 3087 3087 3086 3085 3082 3083 3080 3076 3075 3073 3071 3070 3071 3069 3066 3066 3062 3061 3060 3057 3053 3051 3049 3051 3051 3055 3057 3048 3049 3042 3030 3029 3027 3026 3027 3025
3072 3073 3075 3077 3078 3078 3078 3079 3080 3082 3082 3082 3081 3080 3078 3077 3079 3078 3077 3072 3067 3064 3064 3063 3064 3061 3060 3059 3053 3051 3049 3046 3043 3042 3042 3044 3048 3050 3046 3042 3030 3027 3026 3025 3022 3025 3024
3063 3064 3065 3069 3071 3071 3072 3074 3075 3075 3076 3076 3075 3075 3074 3073 3072 3071 3072 3070 3067 3061 3060 3059 3057 3057 3057 3052 3052 3052 3052 3046 3043 3040 3041 3042 3042 3045 3043 3041 3033 3026 3025 3024 3023 3024 3023
3051 3053 3056 3060 3062 3063 3065 3067 3069 3069 3069 3069 3069 3067 3067 3068 3068 3067 3067 3066 3062 3060 3054 3056 3054 3053 3051 3049 3046 3046 3045 3046 3039 3037 3037 3038 3037 3038 3039 3039 3029 3024 3023 3022 3023 3027 3021
3041 3043 3047 3051 3054 3054 3057 3061 3063 3063 3063 3064 3063 3058 3059 3061 3061 3061 3059 3060 3060 3058 3053 3051 3051 3049 3050 3048 3046 3045 3042 3043 3037 3035 3035 3036 3035 3035 3035 3034 3028 3023 3022 3023 3023 3020 3019
3030 3032 3037 3040 3044 3047 3049 3053 3054 3055 3057 3055 3057 3052 3051 3054 3055 3054 3054 3051 3050 3051 3050 3048 3048 3045 3046 3047 3043 3041 3039 3038 3034 3031 3033 3032 3034 3030 3029 3024 3021 3021 3021 3021 3019 3017 3015